Zeit Nach Flug-Nr.
Alle Abflüge →
EDDM 120020Z AUTO 03004KT CAVOK 14/09 Q1020 NOSIG

 LIVE MAP


DEPARTURES | ARRIVALS

Flug-Nr. ETD From To Status Gate (EDDM) In Progress

Weltweite Ziele

Wir fliegen sowohl kontinentale- als auch interkontinentale Ziele an

Flotte

München Airways ist mit einer der modernsten Flotten weltweit unterwegs

Real ATC

Wir fliegen auf den Online-Netzwerken "VATSIM" und "IVAO". Nach Standardphrasen der ICAO fliegen wir problemlos durch verschiedenste Lufträume weltweit

Soziales

Bei unserer Airline ist sowohl der Spass als auch die Beziehung zwischen den Piloten sehr wertvoll

Reale Flugrouten

Alle Routen werden von uns geprüft und täglich aktualisiert. Sommer- sowie Winterflugpläne bringen euch viel Abwechslung

Discord

Mittels des Discord Servers können die Piloten zusammen fliegen oder sich gegenseitig austauschen.

 LIVEBOARD

 KOMMENDE EVENTS

EventDatum

 NOTAMS

NOTAMDatum

*/